Terminal Aerodrome Forecast
Issued by NWS State College, PA

Home | Current Version | Previous Version | Text Only | Print | Product List | Glossary On
Versions: 1 2 3 4 5 6 7 8 9 10 11 12 13 14 15 16 17 18 19 20 21 22 23 24 25 26 27 28 29 30 31 32 33 34 35 36 37 38 39 40 41 42 43 44 45 46 47 48
220
FTUS41 KCTP 280256 AAA
TAFMDT
TAF AMD
KMDT 280256Z 2803/2824 09005KT 6SM -DZ BR OVC007
     FM281400 11003KT P6SM BKN015
     FM282100 19004KT P6SM SCT025=

USA.gov is the U.S. government's official web portal to all federal, state and local government web resources and services.